Regional Weather Roundup
Issued by NWS Grand Forks, ND

Home | Current Version | Previous Version | Graphics & Text | Print | Product List | Glossary On
Versions: 1 2 3 4 5 6 7 8 9 10 11 12 13 14 15 16 17 18 19 20 21 22 23 24 25 26 27 28 29 30 31 32 33 34 35 36 37 38 39 40 41 42 43 44 45 46 47 48 49 50
000
ASUS43 KFGF 231310
RWRFGF
PRAIRIE TO PINES  WEATHER ROUNDUP
NATIONAL WEATHER SERVICE EASTERN NORTH DAKOTA/GRAND FORKS ND
700 AM CST TUE JAN 23 2018

 **SATELLITE DATA USED TO AUGMENT SKY COVER AT AUTOMATED STATIONS**
 *****  WEATHER ACROSS EASTERN NORTH DAKOTA  *****

CITY           SKY/WX    TMP DP  RH WIND       PRES   REMARKS
GRAND FORKS    CLOUDY    21  17  84 SE5       30.06F WCI  15
GRAND FRKS AFB CLOUDY    21  16  82 CALM      30.05F
GRAND FRKS NWS   N/A     19 N/A N/A S6          N/A  WCI  11
DEVILS LAKE    CLOUDY    19  18  93 SW13      30.00S FOG     WCI   7
FARGO          CLOUDY    21  16  81 N5        30.07R WCI  15
WAHPETON ARPT  CLOUDY    21  16  79 N7        30.07S WCI  13
$$

 ***** WEATHER ACROSS CENTRAL AND WESTERN NORTH DAKOTA  *****

CITY           SKY/WX    TMP DP  RH WIND       PRES   REMARKS
BISMARCK       FOG       14  11  87 CALM      30.03R VSB 3/4
MINOT          FAIR      20  16  84 W14       29.98R WCI   7
JAMESTOWN      CLOUDY    19  18  95 SW6       30.01F WCI  11
MINOT AFB      FAIR      15  13  89 NW12      29.97R WCI   2
GARRISON         N/A     19  18  95 NW9       29.99S WCI   8
WILLISTON      FAIR      16  13  88 CALM      30.05R
DICKINSON      FAIR      21  17  84 W12       30.00R WCI   9
HETTINGER      FAIR      25  19  78 W10       30.05R WCI  15
$$

 *****  OTHER AIRPORT OBSERVATIONS IN OUR AREA  *****

CITY           SKY/WX    TMP DP  RH WIND       PRES   REMARKS
WALHALLA       FAIR      19  19 100 VRB6      30.04S WCI  11
GRAFTON AIRPOR CLOUDY    19  18  93 SE8       30.09R WCI   9
VALLEY CITY AR CLOUDY    18  18 100 SW5       30.05S FOG     WCI  11
CANDO          CLOUDY    19  19 100 SW9       30.01R FOG     WCI   9
CAVALIER APRT    N/A     21  19  93 SW7       30.05R WCI  13
GWINNER          N/A     19  18  93 CALM      30.05S
SHEYENNE NWR     N/A     20  18  92 CALM      29.95S
ROLLA          FOG       19  19 100 SW9       29.96R VSB 1/4 WCI   9
 ***** THE ABOVE OBSERVATIONS ARE NON NWS ARE NOT QUALITY
       CONTROLLED AND MAY MIS-REPORT RAIN FOR SNOW...
$$

  *****  WEATHER ACROSS NORTHERN MINNESOTA  *****

CITY           SKY/WX    TMP DP  RH WIND       PRES   REMARKS
FLAG ISLAND    CLOUDY    12   9  85 CALM      30.06S
WARROAD        CLOUDY    16  10  79 E3        30.07S
ROSEAU         CLOUDY    18  12  79 E5        30.07R WCI  11
HALLOCK        CLOUDY    19  16  86 SE6       30.07R WCI  11
THF RVR FALLS  CLOUDY    17  14  88 SE5       30.06F WCI  10
BAUDETTE       FAIR       9   5  84 E5        30.05S WCI   1
WASKISH        FAIR       7   5  92 CALM      30.06S
CROOKSTON      CLOUDY    18  16  93 CALM      30.08F
STEPHEN NDAWN    N/A     18  14  86 SE3         N/A
GREENBUSH NDAW   N/A     16  12  86 SE5         N/A  WCI   9
$$
  *****  WEATHER ACROSS CENTRAL AND WEST MINNESOTA  *****

CITY           SKY/WX    TMP DP  RH WIND       PRES   REMARKS
FOSSTON        CLOUDY    16  12  86 NE5       30.05S WCI   9
BEMIDJI        CLOUDY    17  13  83 N7        30.03R WCI   8
PARK RAPIDS    CLOUDY    18  12  77 NE8       30.01R WCI   8
ELBOW LAKE     CLOUDY    20  16  84 N8        30.05R WCI  10
WADENA         CLOUDY    18  12  79 N5        30.03R WCI  11
DETROIT LAKES  CLOUDY    19  18  93 N3        30.04R
MOORHEAD       CLOUDY    19  16  86 NE6       30.08R WCI  11
FERGUS FALLS   CLOUDY    19  16  86 N5        30.06R WCI  13
MORRIS MN      CLOUDY    21  18  86 NW9       30.04S WCI  11
STAPLES        FAIR      10   9  92 N5        30.03R WCI   2
$$
  *****  WEATHER ELSEWHERE ACROSS MINNESOTA  *****

CITY           SKY/WX    TMP DP  RH WIND       PRES   REMARKS
DULUTH         FAIR       4   0  83 N15       29.93R WCI -14
INTRNTL FALLS  FAIR       2  -2  83 CALM      30.06R
ELY            NOT AVBL
CLOQUET        MOCLDY     7   0  72 NW15G21   29.96R WCI -11
WHEATON        CLOUDY    21  16  79 NW9       30.09S WCI  11
BRAINERD       FAIR      13   9  84 N6        30.01S WCI   4
HIBBING        FAIR       2  -2  83 N6        29.99S WCI  -9
ALEXANDRIA     CLOUDY    20  15  81 N9        30.03R WCI   9
SAINT CLOUD    FAIR      17  13  84 N13G21    30.01R WCI   4
MINNEAPOLIS    CLOUDY    19  14  81 N18G26    29.98R WCI   4
$$

  *****  WEATHER ACROSS SOUTH DAKOTA  *****

CITY           SKY/WX    TMP DP  RH WIND       PRES   REMARKS
SIOUX FALLS    CLOUDY    22  21  96 NW13      30.06R WCI  10
BROOKINGS      CLOUDY    19  17  92 NW13      30.04R WCI   6
WATERTOWN      CLOUDY    18  18 100 N8        30.02S FOG     WCI   8
HURON          CLOUDY    20  19  96 NW6       30.09R WCI  12
SISSETON         N/A     21  18  88 NW7       30.05S WCI  12
ABERDEEN       CLOUDY    19  17  92 W7        30.07S WCI  10
MITCHELL       CLOUDY    21  19  92 NW10      30.10R WCI  10
PIERRE         CLOUDY    19  18  95 SW5       30.06S WCI  12
MOBRIDGE       FOG       17  14  88 S3        30.02R VSB 1/4
RAPID CITY     CLOUDY    31  24  75 CALM      30.08R
$$

  *****  SOME WEATHER IN NEARBY STATES *****

CITY           SKY/WX    TMP DP  RH WIND       PRES   REMARKS
GLASGOW MT     FAIR      12  10  92 W6        30.07S WCI   3
GREAT FALLS MT FAIR      20  14  77 SW10      30.13S WCI   9
CHEYENNE WY    CLOUDY    23  13  65 NW7       30.13R WCI  15
SCOTTSBLUFF NE MOCLDY    24  16  71 NW10      30.15R WCI  14
OMAHA NE       CLOUDY    25  21  85 NW17      30.10R WCI  12
DES MOINES IA  CLOUDY    29  23  78 NW21      29.98R WCI  16
DAVENPORT IA   CLOUDY    32  26  78 NW20      29.81R WCI  20
CHICAGO IL     LGT SNOW  32  27  81 NW17G23   29.65R WCI  21
EAU CLAIRE WI  CLOUDY    21  18  88 N10G22    29.87R WCI  10
LA CROSSE WI   CLOUDY    28  22  78 NW20      29.83R WCI  15
$$

  *****  SOME NATIONAL WEATHER *****

CITY           SKY/WX    TMP DP  RH WIND       PRES   REMARKS
LA GUARDIA NY  LGT RAIN  50  48  93 S15G24    29.75F FOG
RALEIGH NC     LGT RAIN  63  62  97 SW20      29.77S
ATLANTA GA     FAIR      44  32  62 W8        29.97R
NEW ORLEANS LA FAIR      45  35  68 W3        30.16R
OKLAHOMA CITY  FAIR      27  17  66 NW9       30.21R WCI  18
ALBUQUERQUE NM FAIR      22  10  60 NE6       30.26R WCI  14
SALT LAKE CITY MOCLDY    31  24  75 S6        30.35R
LOS ANGELES CA FAIR      48  30  49 CALM      30.14S
BOISE ID       FAIR      30  24  78 SE10      30.30S WCI  21
SEATTLE WA     CLOUDY    42  32  67 E8        30.08F
$$

*** WEATHER ACROSS MANITOBA...SASKATCHEWAN AND ONTARIO ***
                ***ONTARIO***

CITY           SKY/WX    TMP DP  RH WIND       PRES   REMARKS
GERALDTON      FLURRIES  -8 -13  77 N12G17    30.02S WCI -27
THUNDER BAY    FLURRIES   9  -2  61 NW6       30.00R WCI  -1
SIOUX LOOKOUT  PTCLDY   -15 -20  76 CALM      30.09S
TORONTO        CLOUDY    36  36 100 SE5       29.48S FOG
BIG TROUT LK   NOT AVBL
PICKLE LAKE    CLEAR    -20 -24  83 NE6       30.15S WCI -36
DRYDEN         MOCLDY    -4  -8  84 NE10      30.06F WCI -21
KENORA         FLURRIES   7   3  85 SE2       30.06R
$$
                *** MANITOBA***

CITY           SKY/WX    TMP DP  RH WIND       PRES   REMARKS
BRANDON        CLOUDY    19  18  93 W14       29.97R FOG     WCI   6
DAUPHIN        CLOUDY    23  21  93 W9        29.96S WCI  13
ISLAND LAKE    PTCLDY   -13 -18  77 E6        30.18S WCI -27
PILOT MOUND      N/A     19  18  93 SW9         N/A  WCI   9
THE PAS        LGT SNOW   3  -2  78 E3        30.02S VSB 1
THOMPSON       PTCLDY   -20 -26  76 NE3       30.23S
WINNIPEG       CLOUDY    21  16  79 S10       30.05S WCI  10
CHURCHILL      CLEAR    -15 -20  76 E8        30.48F WCI -32
GILLAM         CLEAR    -24 -29  76 E6        30.34F WCI -40
$$
                ***SASKATCHEWAN***

CITY           SKY/WX    TMP DP  RH WIND       PRES   REMARKS
ESTEVAN        CLOUDY    16  14  93 NW14G20   30.03R FOG     WCI   1
KINDERSLEY     CLEAR     10   9  92 SW9       30.02R WCI  -2
LLOYDMINSTER   FOG       16  14  93 W5        29.98S VSB 1/4 WCI   9
PRINCE ALBERT  LGT SNOW  18  14  86 NW6       29.99S FOG     WCI   9
REGINA         CLOUDY    19  18  93 NW13      30.03R WCI   7
YORKTON        CLOUDY    14  12  92 NW13G21   29.99R WCI   0
N. BATTLEFORD  CLOUDY    19  18  93 W10       30.03R FOG     WCI   8
LA RONGE       LGT SNOW   1  -4  78 N12       30.04S WCI -15
SASKATOON      CLOUDY    23  19  86 W10       30.03S WCI  12
SWIFT CURRENT  CLEAR     18  14  86 W13       30.01R WCI   4
$$
NOTE: THESE ARE AUTOMATED STATIONS WITH LIMITED QUALITY CONTROL
      "FAIR" INDICATES FEW OR NO CLOUDS BELOW 12,000 FEET WITH NO
      SIGNIFICANT WEATHER AND/OR OBSTRUCTIONS TO VISIBILITY.
      SKY/WX - SKY CONDITION AND SIGNIFICANT WEATHER.
      TMP - AIR TEMPERATURE.    DP   - DEWPOINT TEMPERATURE.
      RH  - RELATIVE HUMIDITY.  PRES - PRESSURE.
      HX  - HEAT INDEX.         WCI  - WIND CHILL INDEX.
$




USA.gov is the U.S. government's official web portal to all federal, state and local government web resources and services.